AL YAH 3

Last updated on Thu Nov 21 2024 00:02:43 GMT+0000 (Coordinated Universal Time)

1 43174U 18012A 24325.29123858 -.00000154 00000+0 00000+0 0 9994 2 43174 0.1248 90.1921 0004028 181.7385 232.6407 1.00271380 25097
UTC large
Height (km)
Speed (km/s)
/
Latitude / Longitude
Inclination (degrees)
Orbital Period (minutes)
Azimuth
Elevation
Range (km)
Doppler Factor

Next 0 passes for location: London (51.5072 / 0.1276)

Sorry there are no passes over London.